FW5736 Weather Reports


time (UTC)temp
C
wind
direction
speed
KPH
gust
KPH
rain 1hr
cm
rain 24hr
cm
rain mn
cm
humidity
%
barometer
mb
20260509090104 16 97 0.0 0.0 0.00 0.00 0.00 74 1024.4
20260509085605 16 97 0.0 0.0 0.00 0.00 0.00 74 1024.4
20260509085105 16 97 0.0 0.0 0.00 0.00 0.00 74 1024.3
20260509084604 16 97 0.0 0.0 0.00 0.00 0.00 74 1024.3
20260509084105 16 97 0.0 0.0 0.00 0.00 0.00 74 1024.3
20260509083605 16 97 0.0 0.0 0.00 0.00 0.00 73 1024.2
20260509083105 16 97 0.0 0.0 0.00 0.00 0.00 73 1024.2
20260509082604 16 97 0.0 0.0 0.00 0.00 0.00 73 1024.1
20260509081605 16 97 0.0 0.0 0.00 0.00 0.00 72 1024.0
20260509081105 16 97 0.0 0.0 0.00 0.00 0.00 72 1023.9
20260509080605 16 97 0.0 0.0 0.00 0.00 0.00 71 1023.9
20260509075605 16 97 0.0 0.0 0.00 0.00 0.00 71 1023.7
20260509075105 17 97 0.0 0.0 0.00 0.00 0.00 70 1023.6
20260509074605 17 97 0.0 0.0 0.00 0.00 0.00 70 1023.6
20260509074105 17 97 0.0 0.0 0.00 0.00 0.00 70 1023.6
20260509073605 17 97 0.0 0.0 0.00 0.00 0.00 69 1023.5
20260509073104 17 97 0.0 0.0 0.00 0.00 0.00 69 1023.5
20260509072105 17 97 0.0 0.0 0.00 0.00 0.00 69 1023.4
20260509071605 17 97 0.0 0.0 0.00 0.00 0.00 69 1023.4
20260509071105 17 97 0.0 0.0 0.00 0.00 0.00 68 1023.3
20260509070604 17 97 0.0 0.0 0.00 0.00 0.00 68 1023.3
20260509070105 17 97 0.0 0.0 0.00 0.00 0.00 67 1023.2
20260509065605 17 97 0.0 0.0 0.00 0.00 0.00 67 1023.1
20260509065105 18 98 0.0 0.0 0.00 0.00 0.00 66 1023.0
20260509064605 18 97 0.0 0.0 0.00 0.00 0.00 66 1023.0
20260509063604 18 97 0.0 0.0 0.00 0.00 0.00 64 1022.9
20260509063104 18 97 0.0 0.0 0.00 0.00 0.00 64 1022.9
20260509062604 18 97 0.0 0.0 0.00 0.00 0.00 63 1022.8
20260509062105 18 97 0.0 0.0 0.00 0.00 0.00 63 1022.8
20260509061604 18 110 0.0 0.0 0.00 0.00 0.00 62 1022.8
20260509061104 18 111 0.0 0.0 0.00 0.00 0.00 61 1022.8
20260509060605 18 110 0.0 0.0 0.00 0.00 0.00 61 1022.7
20260509060105 19 111 0.0 0.0 0.00 0.00 0.00 61 1022.7
20260509055605 19 110 0.0 0.0 0.00 0.00 0.00 61 1022.6
20260509055105 19 111 0.0 0.0 0.00 0.00 0.00 61 1022.5
20260509054605 19 117 0.0 0.0 0.00 0.00 0.00 61 1022.5
20260509054104 19 117 0.0 0.0 0.00 0.00 0.00 61 1022.5
20260509053604 19 122 0.0 0.0 0.00 0.00 0.00 61 1022.4
20260509052104 19 48 0.0 1.6 0.00 0.00 0.00 61 1022.4
20260509051604 19 51 0.0 4.8 0.00 0.00 0.00 61 1022.3
20260509051105 19 74 1.6 4.8 0.00 0.00 0.00 61 1022.3
20260509050105 19 106 0.0 0.0 0.00 0.00 0.00 60 1022.3
20260509045605 19 0 0.0 1.6 0.00 0.00 0.00 60 1022.3
20260509044604 19 87 0.0 0.0 0.00 0.00 0.00 59 1022.2
20260509044104 20 87 0.0 0.0 0.00 0.00 0.00 60 1022.2
20260509043104 20 91 0.0 3.2 0.00 0.00 0.00 58 1022.2
20260509042605 20 88 0.0 0.0 0.00 0.00 0.00 58 1022.1
20260509042104 20 59 0.0 1.6 0.00 0.00 0.00 59 1022.1
20260509041605 20 61 0.0 4.8 0.00 0.00 0.00 58 1022.1
20260509041105 20 91 0.0 4.8 0.00 0.00 0.00 58 1022.1
20260509040604 20 126 0.0 0.0 0.00 0.00 0.00 57 1022.0
20260509040104 20 125 0.0 8.0 0.00 0.00 0.00 56 1022.0
20260509035604 20 134 0.0 4.8 0.00 0.00 0.00 55 1022.0
20260509035104 20 71 1.6 8.0 0.00 0.00 0.00 55 1022.0
20260509034604 20 135 1.6 8.0 0.00 0.00 0.00 56 1022.1
20260509034105 20 72 0.0 3.2 0.00 0.00 0.00 56 1022.1
20260509033605 20 52 1.6 9.7 0.00 0.00 0.00 56 1022.2
20260509033105 20 130 0.0 4.8 0.00 0.00 0.00 55 1022.2
20260509031104 20 1 0.0 0.0 0.00 0.00 0.00 57 1022.3
20260509030605 20 359 0.0 4.8 0.00 0.00 0.00 55 1022.4
20260509030104 20 1 0.0 0.0 0.00 0.00 0.00 56 1022.4
20260509025605 20 47 0.0 8.0 0.00 0.00 0.00 56 1022.5
20260509025105 20 37 3.2 12.9 0.00 0.00 0.00 55 1022.6
20260509024605 20 78 0.0 0.0 0.00 0.00 0.00 56 1022.6
20260509024105 20 110 0.0 4.8 0.00 0.00 0.00 56 1022.7
20260509023604 20 129 0.0 0.0 0.00 0.00 0.00 55 1022.8
20260509023104 20 132 0.0 1.6 0.00 0.00 0.00 55 1022.9
20260509022604 20 139 0.0 4.8 0.00 0.00 0.00 54 1022.9
20260509021604 21 98 0.0 4.8 0.00 0.00 0.00 53 1023.0
20260509021104 21 92 0.0 3.2 0.00 0.00 0.00 54 1023.1
20260509020104 21 0 0.0 8.0 0.00 0.00 0.00 54 1023.2
20260509015105 20 359 1.6 8.0 0.00 0.00 0.00 54 1023.4
20260509014605 20 359 1.6 9.7 0.00 0.00 0.00 55 1023.4
20260509014105 20 359 0.0 0.0 0.00 0.00 0.00 54 1023.5
20260509012604 20 359 0.0 9.7 0.00 0.00 0.00 56 1023.6
20260509012104 20 9 1.6 9.7 0.00 0.00 0.00 57 1023.6
20260509011604 19 0 3.2 12.9 0.00 0.00 0.00 56 1023.6
20260509011104 19 135 1.6 9.7 0.00 0.00 0.00 58 1023.6
20260509010605 19 19 4.8 11.3 0.00 0.00 0.00 58 1023.7
20260509010105 18 16 0.0 9.7 0.00 0.00 0.00 59 1023.7
20260509005604 18 0 0.0 12.9 0.00 0.00 0.00 58 1023.8
20260509005104 18 0 1.6 12.9 0.00 0.00 0.00 60 1023.8
20260509004104 18 359 3.2 9.7 0.00 0.00 0.00 60 1023.9
20260509003604 17 359 8.0 12.9 0.00 0.00 0.00 61 1023.9
20260509003104 17 0 4.8 9.7 0.00 0.00 0.00 63 1023.9
20260509002604 17 30 3.2 8.0 0.00 0.00 0.00 65 1023.9
20260509002104 17 1 6.4 11.3 0.00 0.00 0.00 66 1023.9
20260509001604 17 57 1.6 9.7 0.00 0.00 0.00 67 1023.9
20260509001104 16 9 6.4 12.9 0.00 0.00 0.00 67 1023.9
20260509000604 16 0 0.0 1.6 0.00 0.00 0.00 68 1023.9
20260509000105 16 10 1.6 8.0 0.00 0.00 0.00 68 1023.9
20260508235604 16 8 3.2 9.7 0.00 0.00 0.00 70 1024.0
20260508235104 16 359 0.0 4.8 0.00 0.00 0.00 71 1024.0
20260508234604 16 359 0.0 4.8 0.00 0.00 0.00 70 1024.0
20260508234104 15 359 0.0 0.0 0.00 0.00 0.00 72 1024.0
20260508233604 15 359 1.6 4.8 0.00 0.00 0.00 73 1024.1
20260508233104 15 359 0.0 4.8 0.00 0.00 0.00 74 1024.1
20260508232604 15 359 0.0 4.8 0.00 0.00 0.00 74 1024.1
20260508232105 15 359 1.6 4.8 0.00 0.00 0.00 75 1024.0
20260508231103 14 359 0.0 3.2 0.00 0.00 0.00 76 1024.0
20260508230604 14 359 3.2 8.0 0.00 0.00 0.00 76 1024.0
20260508230105 14 359 0.0 0.0 0.00 0.00 0.00 77 1024.0
20260508225604 14 359 0.0 0.0 0.00 0.00 0.00 77 1024.1
20260508225104 13 359 1.6 4.8 0.00 0.00 0.00 78 1024.0
20260508224104 13 359 1.6 4.8 0.00 0.00 0.00 79 1024.0
20260508223604 13 359 1.6 4.8 0.00 0.00 0.00 79 1023.9
20260508223104 13 359 0.0 4.8 0.00 0.00 0.00 79 1023.9
20260508222104 12 359 0.0 0.0 0.00 0.00 0.00 80 1023.9
20260508221604 12 359 0.0 4.8 0.00 0.00 0.00 80 1023.8
20260508221104 12 359 0.0 0.0 0.00 0.00 0.00 81 1023.8
20260508220604 12 359 0.0 1.6 0.00 0.00 0.00 81 1023.8
20260508220104 12 359 0.0 0.0 0.00 0.00 0.00 81 1023.7
20260508215604 12 359 0.0 0.0 0.00 0.00 0.00 82 1023.7
20260508215104 12 359 0.0 0.0 0.00 0.00 0.00 82 1023.6
20260508214605 12 359 0.0 0.0 0.00 0.00 0.00 82 1023.5
20260508214104 11 359 0.0 0.0 0.00 0.00 0.00 82 1023.5
20260508213604 11 359 0.0 0.0 0.00 0.00 0.00 82 1023.5
20260508213104 11 359 0.0 0.0 0.00 0.00 0.00 82 1023.5
20260508212104 11 359 0.0 0.0 0.00 0.00 0.00 81 1023.3
20260508211604 11 359 0.0 0.0 0.00 0.00 0.00 81 1023.2
20260508211104 11 359 0.0 0.0 0.00 0.00 0.00 80 1023.2
20260508210604 12 359 0.0 0.0 0.00 0.00 0.00 80 1023.1
20260508210104 12 359 0.0 0.0 0.00 0.00 0.00 80 1023.0
20260508205605 12 359 0.0 4.8 0.00 0.00 0.00 79 1023.0
20260508204604 12 359 0.0 3.2 0.00 0.00 0.00 78 1022.8
20260508204104 12 0 0.0 8.0 0.00 0.00 0.00 78 1022.7
20260508203604 12 359 0.0 8.0 0.00 0.00 0.00 77 1022.7
20260508203104 12 359 0.0 0.0 0.00 0.00 0.00 77 1022.6
20260508202104 12 359 0.0 4.8 0.00 0.00 0.00 76 1022.4
20260508201604 12 359 0.0 4.8 0.00 0.00 0.00 76 1022.4
20260508201104 13 359 0.0 0.0 0.00 0.00 0.00 76 1022.3
20260508200604 13 2 0.0 0.0 0.00 0.00 0.00 75 1022.3
20260508200104 13 4 0.0 3.2 0.00 0.00 0.00 75 1022.2
20260508195604 13 8 0.0 0.0 0.00 0.00 0.00 74 1022.2
20260508195104 13 6 0.0 0.0 0.00 0.00 0.00 74 1022.1
20260508194604 13 5 0.0 0.0 0.00 0.00 0.00 74 1022.0
20260508194104 13 5 0.0 0.0 0.00 0.00 0.00 73 1022.0
20260508193604 13 4 0.0 0.0 0.00 0.00 0.00 73 1021.9
20260508193104 13 10 0.0 0.0 0.00 0.00 0.00 73 1021.8
20260508192604 13 8 0.0 0.0 0.00 0.00 0.00 73 1021.7
20260508192104 13 7 0.0 0.0 0.00 0.00 0.00 73 1021.6
20260508190104 13 13 0.0 0.0 0.00 0.00 0.00 73 1021.4
20260508185604 13 15 0.0 1.6 0.00 0.00 0.00 73 1021.4
20260508185104 13 359 1.6 8.0 0.00 0.00 0.00 73 1021.4
20260508184604 13 3 3.2 9.7 0.00 0.00 0.00 73 1021.4
20260508184104 13 1 4.8 11.3 0.00 0.00 0.00 73 1021.4
20260508183104 13 359 3.2 8.0 0.00 0.00 0.00 73 1021.4
20260508182104 13 0 0.0 0.0 0.00 0.00 0.00 73 1021.2
20260508181604 14 0 0.0 0.0 0.00 0.00 0.00 73 1021.2
20260508181104 14 359 4.8 9.7 0.00 0.00 0.00 73 1021.1
20260508180604 14 12 4.8 9.7 0.00 0.00 0.00 73 1021.1
20260508180104 14 9 6.4 11.3 0.00 0.00 0.00 73 1021.1
20260508175604 14 1 8.0 14.5 0.00 0.00 0.00 73 1021.1
20260508175104 14 3 8.0 14.5 0.00 0.00 0.00 73 1021.1
20260508174604 14 0 11.3 19.3 0.00 0.00 0.00 73 1021.0
20260508173104 14 5 3.2 11.3 0.00 0.00 0.00 72 1021.0
20260508172604 14 1 4.8 9.7 0.00 0.00 0.00 72 1021.0
20260508172104 14 136 6.4 11.3 0.00 0.00 0.00 72 1021.0
20260508171604 14 112 4.8 12.9 0.00 0.00 0.00 72 1021.0
20260508170603 14 1 8.0 14.5 0.00 0.00 0.00 72 1021.0
20260508170103 14 27 11.3 19.3 0.00 0.00 0.00 72 1021.1
20260508165604 14 8 9.7 12.9 0.00 0.00 0.00 72 1021.1
20260508165104 14 24 8.0 14.5 0.00 0.00 0.00 72 1021.1
20260508163605 14 16 9.7 19.3 0.00 0.00 0.00 71 1021.0
20260508163105 14 359 9.7 14.5 0.00 0.00 0.00 71 1021.0
20260508162605 14 359 9.7 16.1 0.00 0.00 0.00 71 1021.0
20260508161605 14 7 4.8 12.9 0.00 0.00 0.00 71 1021.0
20260508161105 14 359 3.2 8.0 0.00 0.00 0.00 71 1020.9
20260508160605 14 0 8.0 16.1 0.00 0.00 0.00 71 1021.0
20260508160105 14 359 3.2 12.9 0.00 0.00 0.00 70 1021.0
20260508155605 14 359 6.4 11.3 0.00 0.00 0.00 70 1021.0
20260508154105 14 57 8.0 14.5 0.00 0.00 0.00 70 1020.9
20260508153605 14 24 9.7 19.3 0.00 0.00 0.00 70 1020.9
20260508153105 14 0 9.7 12.9 0.00 0.00 0.00 70 1021.0
20260508152606 14 137 9.7 16.1 0.00 0.00 0.00 70 1021.0
20260508151605 15 1 8.0 16.1 0.00 0.00 0.00 69 1021.0
20260508150105 14 359 6.4 12.9 0.00 0.00 0.00 69 1021.0
20260508145605 14 4 8.0 16.1 0.00 0.00 0.00 69 1021.0
20260508144604 14 0 8.0 12.9 0.00 0.00 0.00 69 1020.9
20260508144105 15 86 9.7 16.1 0.00 0.00 0.00 69 1020.9
20260508143605 15 129 4.8 12.9 0.00 0.00 0.00 68 1020.9
20260508143105 15 17 6.4 14.5 0.00 0.00 0.00 68 1020.8
20260508142605 15 80 9.7 16.1 0.00 0.00 0.00 68 1020.8
20260508142105 15 12 11.3 19.3 0.00 0.00 0.00 68 1020.8
20260508141605 15 6 9.7 16.1 0.00 0.00 0.00 68 1020.8
20260508140605 15 59 8.0 19.3 0.00 0.00 0.00 68 1020.7
20260508140105 15 109 9.7 19.3 0.00 0.00 0.00 67 1020.8
20260508135105 15 4 9.7 20.9 0.00 0.00 0.00 67 1020.7
20260508134605 15 7 11.3 19.3 0.00 0.00 0.00 67 1020.7
20260508133605 15 65 9.7 20.9 0.00 0.00 0.00 67 1020.7
20260508133105 15 15 11.3 22.5 0.00 0.00 0.00 66 1020.6
20260508132605 15 39 11.3 20.9 0.00 0.00 0.00 66 1020.7
20260508132105 15 10 11.3 19.3 0.00 0.00 0.00 66 1020.7
20260508131105 15 4 12.9 20.9 0.00 0.00 0.00 66 1020.6
20260508130605 15 31 11.3 20.9 0.00 0.00 0.00 66 1020.5
20260508125605 15 1 11.3 24.1 0.00 0.00 0.00 66 1020.6
20260508124605 15 2 9.7 19.3 0.00 0.00 0.00 65 1020.6
20260508124105 15 3 9.7 24.1 0.00 0.00 0.00 65 1020.6
20260508123605 15 30 9.7 20.9 0.00 0.00 0.00 65 1020.7
20260508123105 15 16 16.1 27.4 0.00 0.00 0.00 65 1020.7
20260508122605 15 1 11.3 19.3 0.00 0.00 0.00 65 1020.7
20260508122105 15 23 9.7 22.5 0.00 0.00 0.00 65 1020.6
20260508121105 15 24 12.9 29.0 0.00 0.00 0.00 64 1020.6
20260508120605 15 0 9.7 19.3 0.00 0.00 0.00 64 1020.6
20260508120105 15 4 11.3 24.1 0.00 0.00 0.00 64 1020.6
20260508115605 15 0 11.3 24.1 0.00 0.00 0.00 64 1020.6
20260508115105 15 1 12.9 27.4 0.00 0.00 0.00 64 1020.6
20260508114605 15 6 9.7 19.3 0.00 0.00 0.00 64 1020.5
20260508113605 15 9 9.7 22.5 0.00 0.00 0.00 64 1020.4
20260508112605 15 2 12.9 25.7 0.00 0.00 0.00 64 1020.3
20260508112104 15 2 14.5 27.4 0.00 0.00 0.00 64 1020.3
20260508111605 15 37 9.7 22.5 0.00 0.00 0.00 64 1020.3
20260508110605 15 359 12.9 22.5 0.00 0.00 0.00 64 1020.3
20260508110105 15 2 14.5 29.0 0.00 0.00 0.00 64 1020.2
20260508105605 15 26 11.3 25.7 0.00 0.00 0.00 64 1020.2
20260508105105 15 25 11.3 32.2 0.00 0.00 0.00 64 1020.1
20260508104605 15 6 16.1 25.7 0.00 0.00 0.00 64 1019.9
20260508104105 15 14 12.9 24.1 0.00 0.00 0.00 64 1020.0
20260508103105 15 41 12.9 29.0 0.00 0.00 0.00 64 1019.8
20260508102104 15 12 16.1 33.8 0.00 0.00 0.00 64 1019.6
20260508101605 15 0 14.5 27.4 0.00 0.00 0.00 64 1019.6
20260508101105 15 11 14.5 27.4 0.00 0.00 0.00 64 1019.5
20260508100605 15 359 11.3 22.5 0.00 0.00 0.00 64 1019.5
20260508100104 15 1 14.5 33.8 0.00 0.00 0.00 64 1019.5
20260508095105 15 7 16.1 25.7 0.00 0.00 0.00 64 1019.6
20260508094604 15 5 19.3 32.2 0.00 0.00 0.00 64 1019.5
20260508093605 15 0 14.5 25.7 0.00 0.00 0.00 64 1019.3
20260508093105 15 1 16.1 29.0 0.00 0.00 0.00 64 1019.3
20260508092604 15 6 14.5 32.2 0.00 0.00 0.00 64 1019.2
20260508091604 15 13 11.3 24.1 0.00 0.00 0.00 64 1019.1
20260508091104 15 4 19.3 40.2 0.00 0.00 0.00 63 1019.1
20260508090605 15 0 14.5 32.2 0.00 0.00 0.00 63 1019.0